This demonstration page uses our WeatherBlox Daily Observations layout. Learn more.

Left ArrowRight Arrow

Hourly Observations for June 8, 2015

Temp ( °F °C ) Dew Point ( °F °C ) Humidity (%) Winds ( mph kmh ) Pressure ( in mb ) Visibility ( mi km ) Precip ( " mm )
12:53 am 00:53 Clear 55 12.8 51 10.6 87 87 SW 8 13 29.88 1012 10 16 0.00 0.00
1:53 am 01:53 Mostly Clear 55 12.8 50 10 83 83 SSW 3 6 29.86 1011 10 16 0.00 0.00
2:53 am 02:53 Clear 54 12.2 50 10 87 87 Calm 29.87 1012 10 16 0.00 0.00
3:53 am 03:53 Clear 52 11.1 49 9.4 89 89 W 5 7 29.87 1012 10 16 0.00 0.00
4:53 am 04:53 Clear 51 10.6 49 9.4 92 92 W 6 9 29.88 1012 10 16 0.00 0.00
5:53 am 05:53 Sunny 53 11.7 50 10 89 89 W 6 9 29.88 1012 10 16 0.00 0.00
6:53 am 06:53 Sunny 59 15 54 12.2 83 83 WSW 7 11 29.87 1011 10 16 0.00 0.00
7:53 am 07:53 Sunny 69 20.6 56 13.3 63 63 SW 16 26 29.85 1011 10 16 0.00 0.00
8:53 am 08:53 Sunny 73 22.8 54 12.2 51 51 SW 16 26 29.85 1011 10 16 0.00 0.00
9:53 am 09:53 Sunny 78 25.6 54 12.2 43 43 SW 17 28 29.85 1011 10 16 0.00 0.00
10:53 am 10:53 Sunny 84 28.9 54 12.2 36 36 SW 13 20 29.83 1010 10 16 0.00 0.00
11:53 am 11:53 Sunny 87 30.6 55 12.8 34 34 SSW 15 24 29.81 1009 10 16 0.00 0.00
12:53 pm 12:53 Sunny 90 32.2 54 12.2 29 29 SSW 16 26 29.78 1009 10 16 0.00 0.00
1:53 pm 13:53 Sunny 93 33.9 49 9.4 22 22 SW 16 26 29.76 1008 10 16 0.00 0.00
2:53 pm 14:53 Sunny 94 34.4 49 9.4 21 21 WSW 23 37 29.74 1007 10 16 0.00 0.00
3:53 pm 15:53 Mostly Sunny 95 35 51 10.6 23 23 WSW 21 33 29.72 1006 10 16 0.00 0.00
4:53 pm 16:53 Sunny 94 34.4 50 10 22 22 SW 22 35 29.70 1006 10 16 0.00 0.00
5:53 pm 17:53 Sunny 94 34.4 49 9.4 21 21 SW 20 31 29.68 1005 10 16 0.00 0.00
6:53 pm 18:53 Sunny 92 33.3 51 10.6 25 25 WSW 18 30 29.66 1005 10 16 0.00 0.00
7:53 pm 19:53 Sunny 91 32.8 47 8.3 22 22 W 15 24 29.65 1004 10 16 0.00 0.00
8:53 pm 20:53 Sunny 84 28.9 47 8.3 27 27 W 13 20 29.66 1005 10 16 0.00 0.00
9:53 pm 21:53 Clear 78 25.6 48 8.9 35 35 WSW 12 19 29.68 1005 10 16 0.00 0.00
10:53 pm 22:53 Clear 71 21.7 51 10.6 49 49 Calm 29.69 1005 10 16 0.00 0.03
11:53 pm 23:53 Clear 68 20 50 10 53 53 Calm 29.70 1006 10 16 0.00 0.03

Powered by AerisWeather